| time (UTC) | temp F | wind direction | speed knots | gust knots | rain 1hr in | rain 24hr in | rain mn in | humidity % | barometer mb |
| 20260902190004 | 63 | 210 | 4.3 | 12.2 | 0.00 | 0.00 | 0.00 | 84 | 1010.8 |
| 20260902181504 | 64 | 247 | 1.7 | 10.4 | 0.00 | 0.00 | 0.00 | 85 | 1010.7 |
| 20260902180007 | 64 | 228 | 2.6 | 10.4 | 0.00 | 0.00 | 0.00 | 85 | 1010.7 |
| 20260902174504 | 65 | 226 | 2.6 | 8.7 | 0.00 | 0.00 | 0.00 | 84 | 1010.5 |
| 20260902170004 | 66 | 189 | 0.9 | 7.8 | 0.00 | 0.00 | 0.00 | 82 | 1010.6 |
| 20260902161504 | 67 | 199 | 2.6 | 7.8 | 0.00 | 0.00 | 0.00 | 80 | 1010.6 |
| 20260902153005 | 69 | 195 | 3.5 | 8.7 | 0.00 | 0.00 | 0.00 | 79 | 1010.6 |
| 20260902151504 | 69 | 212 | 3.5 | 7.8 | 0.00 | 0.01 | 0.00 | 79 | 1010.7 |
| 20260902144504 | 71 | 236 | 2.6 | 10.4 | 0.00 | 0.01 | 0.00 | 70 | 1010.8 |
| 20260902143005 | 72 | 206 | 3.5 | 10.4 | 0.00 | 0.01 | 0.00 | 70 | 1010.7 |
| 20260902141504 | 72 | 241 | 1.7 | 8.7 | 0.00 | 0.01 | 0.00 | 70 | 1010.8 |
| 20260902131504 | 71 | 204 | 3.5 | 10.4 | 0.00 | 0.02 | 0.00 | 74 | 1010.8 |
| 20260902130004 | 71 | 199 | 2.6 | 12.2 | 0.00 | 0.02 | 0.00 | 75 | 1011.1 |
| 20260902124504 | 71 | 215 | 1.7 | 7.0 | 0.00 | 0.02 | 0.00 | 74 | 1011.1 |
| 20260902123005 | 71 | 198 | 1.7 | 7.8 | 0.00 | 0.02 | 0.00 | 73 | 1011.4 |
| 20260902120004 | 70 | 241 | 2.6 | 8.7 | 0.00 | 0.02 | 0.00 | 74 | 1011.4 |
| 20260902114505 | 69 | 232 | 3.5 | 7.8 | 0.00 | 0.02 | 0.00 | 76 | 1011.7 |
| 20260902113005 | 68 | 259 | 2.6 | 7.8 | 0.00 | 0.02 | 0.00 | 76 | 1011.8 |
| 20260902111504 | 68 | 227 | 2.6 | 7.8 | 0.00 | 0.02 | 0.00 | 77 | 1011.8 |
| 20260902101505 | 65 | 238 | 1.7 | 7.8 | 0.00 | 0.02 | 0.00 | 82 | 1012.1 |
| 20260902100004 | 65 | 242 | 1.7 | 10.4 | 0.00 | 0.02 | 0.00 | 81 | 1012.0 |
| 20260902094504 | 65 | 239 | 2.6 | 7.8 | 0.00 | 0.02 | 0.00 | 81 | 1012.1 |
| 20260902091504 | 65 | 223 | 2.6 | 7.0 | 0.00 | 0.02 | 0.00 | 81 | 1012.1 |
| 20260902090005 | 65 | 221 | 2.6 | 7.8 | 0.00 | 0.02 | 0.00 | 80 | 1012.1 |
| 20260902084505 | 65 | 228 | 1.7 | 7.0 | 0.00 | 0.02 | 0.00 | 80 | 1012.1 |
| 20260902083005 | 64 | 237 | 1.7 | 7.8 | 0.00 | 0.02 | 0.00 | 82 | 1012.1 |
| 20260902074504 | 63 | 245 | 2.6 | 7.8 | 0.00 | 0.02 | 0.00 | 83 | 1012.0 |
| 20260902071505 | 61 | 213 | 1.7 | 5.2 | 0.00 | 0.02 | 0.00 | 84 | 1011.7 |
| 20260902070006 | 61 | 228 | 1.7 | 6.1 | 0.00 | 0.02 | 0.00 | 84 | 1011.7 |
| 20260902061504 | 60 | 238 | 0.9 | 6.1 | 0.00 | 0.02 | 0.00 | 86 | 1011.7 |
| 20260902060005 | 59 | 246 | 1.7 | 6.1 | 0.00 | 0.02 | 0.00 | 87 | 1011.7 |
| 20260902054503 | 59 | 249 | 2.6 | 6.1 | 0.00 | 0.02 | 0.00 | 89 | 1011.7 |
| 20260902051504 | 59 | 250 | 2.6 | 7.0 | 0.00 | 0.02 | 0.00 | 89 | 1011.5 |
| 20260902044504 | 58 | 238 | 2.6 | 6.1 | 0.00 | 0.02 | 0.00 | 90 | 1010.9 |
| 20260902041505 | 58 | 200 | 1.7 | 6.1 | 0.00 | 0.02 | 0.00 | 91 | 1010.9 |
| 20260902040004 | 58 | 235 | 1.7 | 7.0 | 0.00 | 0.02 | 0.00 | 90 | 1010.8 |
| 20260902034504 | 59 | 210 | 1.7 | 5.2 | 0.00 | 0.02 | 0.00 | 90 | 1010.8 |
| 20260902024504 | 59 | 239 | 2.6 | 6.1 | 0.00 | 0.02 | 0.00 | 90 | 1010.7 |
| 20260902010004 | 60 | 233 | 0.9 | 5.2 | 0.00 | 0.02 | 0.00 | 89 | 1010.5 |
| 20260902004504 | 61 | 217 | 1.7 | 6.1 | 0.00 | 0.02 | 0.00 | 88 | 1010.5 |
| 20260902001504 | 61 | 285 | 1.7 | 4.3 | 0.00 | 0.02 | 0.00 | 88 | 1010.4 |
| 20260902000004 | 61 | 273 | 1.7 | 6.1 | 0.00 | 0.02 | 0.00 | 88 | 1010.4 |
| 20260901233004 | 62 | 264 | 0.9 | 5.2 | 0.00 | 0.02 | 0.00 | 87 | 1010.4 |
| 20260901230005 | 62 | 229 | 1.7 | 4.3 | 0.00 | 0.02 | 0.00 | 87 | 1010.7 |
| 20260901224504 | 62 | 261 | 1.7 | 5.2 | 0.00 | 0.02 | 0.00 | 86 | 1010.3 |
| 20260901223006 | 62 | 276 | 2.6 | 6.1 | 0.00 | 0.02 | 0.00 | 85 | 1010.3 |
| 20260901221504 | 63 | 299 | 1.7 | 5.2 | 0.00 | 0.02 | 0.00 | 84 | 1010.2 |
| 20260901213005 | 64 | 272 | 2.6 | 6.1 | 0.00 | 0.02 | 0.02 | 83 | 1009.8 |
| 20260901204504 | 65 | 285 | 4.3 | 7.8 | 0.00 | 0.02 | 0.02 | 82 | 1009.7 |
| 20260901200004 | 65 | 265 | 2.6 | 7.8 | 0.00 | 0.02 | 0.02 | 83 | 1009.6 |
| 20260901194504 | 65 | 277 | 3.5 | 8.7 | 0.00 | 0.02 | 0.02 | 83 | 1009.4 |
| 20260901193005 | 65 | 277 | 1.7 | 7.0 | 0.00 | 0.02 | 0.02 | 83 | 1009.4 |